Regional Weather Roundup
Issued by NWS

Home | Current Version | Previous Version | Graphics & Text | Print | Product List | Glossary On
Versions: 1 2 3 4 5 6 7 8 9 10 11 12 13 14 15 16 17 18 19 20 21 22 23 24 25 26 27 28 29 30 31 32 33 34 35 36 37 38 39 40 41 42 43 44 45 46 47 48 49 50
000
ASUS44 KMEG 292210
RWRTN
TENNESSEE HOURLY STATE WEATHER ROUNDUP
NATIONAL WEATHER SERVICE MEMPHIS TN
500 PM CDT SAT APR 29 2017

TNZ002-004-019-021-049-052-054-088>092-292300-
WEST TENNESSEE

CITY           SKY/WX    TMP DP  RH WIND       PRES   REMARKS
MEMPHIS INTL   MOSUNNY   87  70  56 S22G30    29.80F HX  92
NWS MEMPHIS      N/A     87 N/A N/A MISG        N/A
JACKSON        MOSUNNY   86  69  56 S18G30    29.85F HX  90
DYERSBURG      PTSUNNY   86  67  52 S9G23     29.83R
SOMERVILLE     PTSUNNY   84  68  58 S15G30    29.83F
UNION CITY     MOSUNNY   84  68  58 S16G30    29.83R
BOLIVAR        MOSUNNY   84  68  58 SE13G23   29.85F
HUNTINGDON     MOSUNNY   84  68  58 S17G26    29.86S
LEXINGTON      SUNNY     84  66  54 S14G29    29.89F
SAVANNAH       MOSUNNY   84  68  58 S14G24    29.90S
$$

TNZ008-025-027-028-033-062-065-066-292300-
NORTH MIDDLE TENNESSEE

CITY           SKY/WX    TMP DP  RH WIND       PRES   REMARKS
NASHVILLE      MOSUNNY   87  64  46 S17G26    29.95F
PORTLAND       SUNNY     86  66  51 S12G21    29.93F
CLARKSVILLE    MOSUNNY   87  65  47 S12G25    29.88F
SMYRNA         MOSUNNY   86  67  52 S13G20    29.95F
COOKEVILLE     PTSUNNY   84  66  54 SE13G18   29.98F
GALLATIN       SUNNY     88  64  45 S10G23    29.95F
CROSSVILLE     MOSUNNY   82  62  50 S8G16     30.07F
$$

TNZ061-075-076-078-094-096-097-292300-
SOUTH MIDDLE TENNESSEE

CITY           SKY/WX    TMP DP  RH WIND       PRES   REMARKS
FAYETTEVILLE   PTSUNNY   86  64  48 S15G22    29.99R
TULLAHOMA      SUNNY     84  61  45 S9        30.00F
WINCHESTER     PTSUNNY   88  66  48 S12       29.99F HX  90
MCMINNVILLE    SUNNY     88  64  45 SW9       29.99F
COLUMBIA       SUNNY     84  70  61 S14       29.94F
SHELBYVILLE    MOSUNNY   84  68  58 S16       29.98F
$$

TNZ017-018-042-046-047-292300-
NORTHEAST TENNESSEE

CITY           SKY/WX    TMP DP  RH WIND       PRES   REMARKS
TRI CITIES     CLOUDY    81  69  67 SW7       30.07R
ELIZABETHTON   CLOUDY    82  66  57 SW3       30.07R
$$

TNZ012-013-036-069-073-074-292300-
CENTRAL EAST TENNESSEE

CITY           SKY/WX    TMP DP  RH WIND       PRES   REMARKS
KNOXVILLE      MOSUNNY   88  61  40 SW10      30.01F
OAK RIDGE      SUNNY     88  61  40 VRB5      30.03F
DOWNTOWN KNOXV SUNNY     90  61  37 W10G18    30.01S
GATLINBURG     SUNNY     90  55  31 SW10      30.01S
MORRISTOWN     SUNNY     86  64  48 S9        30.02F
JACKSBORO      SUNNY     88  63  42 SW13G25   30.05S
$$

TNZ083-085-099-292300-
SOUTHEAST TENNESSEE

CITY           SKY/WX    TMP DP  RH WIND       PRES   REMARKS
CHATTANOOGA    CLOUDY    86  64  47 S7        30.00F
$$

SKY/WX REPORTED AS FAIR MEANS FEW OR NO CLOUDS BELOW
12 THOUSAND FEET.




USA.gov is the U.S. government's official web portal to all federal, state and local government web resources and services.